Regional Weather Roundup
Issued by NWS

Home | Current Version | Previous Version | Text Only | Print | Product List | Glossary Off
Versions: 1 2 3 4 5 6 7 8 9 10 11 12 13 14 15 16 17 18 19 20 21 22 23 24 25 26 27 28 29 30 31 32 33 34 35 36 37 38 39 40 41 42 43 44 45 46 47 48 49 50

000
ASUS43 KIND 010609
RWRIN

WEATHER ROUNDUP FOR INDIANA
NATIONAL WEATHER SERVICE INDIANAPOLIS IN
200 AM EDT MON SEP 01 2014

NOTE: "FAIR" INDICATES FEW OR NO CLOUDS BELOW 12,000 FEET WITH NO
SIGNIFICANT WEATHER AND/OR OBSTRUCTIONS TO VISIBILITY.

* - STATION DOES NOT REPORT WEATHER SUCH AS PRECIPITATION OR FOG.

+ - STATION NOT QUALITY CONTROLLED BY THE NATIONAL WEATHER SERVICE.
    USE DATA WITH CAUTION...ESPECIALLY DEWPOINT AND RELATIVE
    HUMIDITY OBSERVATIONS.

INZ001>003-010>013-019-020-010700-
NORTHWEST INDIANA

CITY           SKY/WX    TMP DP  RH WIND       PRES   REMARKS
GARY /AIRPORT/ FAIR      75  70  86 S6        29.90S
KNOX *+        FAIR      71  68  90 S6        29.92S
LA PORTE +     FAIR      70  70 100 S5        29.93S FOG
6HR MIN TEMP:  67; 6HR MAX TEMP:  78;

MICHIGAN CITY+ FAIR      70  70 100 S5        29.91F
MONTICELLO +   MOCLDY    73  71  94 S5        29.94R
RENSSELAER +   FAIR      72  72 100 S5        29.93R
VALPARAISO     FAIR      71  69  93 S7        29.92S
6HR MIN TEMP:  71; 6HR MAX TEMP:  80;


$$

LMZ046-743>745-010700-
SOUTHERN LAKE MICHIGAN

STATION/POSITION TIME  TEMP WIND        PRES
                       AIR  DIR/SP/G
                 (UTC) (F)  (DEG/KT/KT) (MB)
MICHIGAN CITY    0600   73  150/  9/ 13   N/A

$$

INZ004-005-014>016-021>024-010700-
NORTH CENTRAL INDIANA

CITY           SKY/WX    TMP DP  RH WIND       PRES   REMARKS
GOSHEN         FAIR      73  69  87 S6        29.94S
6HR MIN TEMP:  71; 6HR MAX TEMP:  80;

LOGANSPORT +   FAIR      70  68  94 S6        29.96S
PERU/GRISSOM   FAIR      72  72 100 S7        29.95F
6HR MIN TEMP:  70; 6HR MAX TEMP:  77;

ROCHESTER +    FAIR      73  72  94 S6        29.95S
SOUTH BEND     FAIR      73  69  87 S7        29.93S
6HR MIN TEMP:  72; 6HR MAX TEMP:  80;

WARSAW +       FAIR      72  70  94 S3        29.94F

$$

INZ006>009-017-018-025>027-010700-
NORTHEAST INDIANA

CITY           SKY/WX    TMP DP  RH WIND       PRES   REMARKS
ANGOLA *+      PTCLDY    70  61  73 S3        29.96R
AUBURN +       FAIR      72  68  88 SW3       29.97S
FORT WAYNE     MOCLDY    71  69  93 SW8       29.97S
6HR MIN TEMP:  71; 6HR MAX TEMP:  75;

HUNTINGTON +   FAIR      71  70  96 S5        29.96F
6HR MIN TEMP:  71; 6HR MAX TEMP:  76;


$$

INZ028-029-035-036-043>045-051>053-010700-
WEST CENTRAL INDIANA

CITY           SKY/WX    TMP DP  RH WIND       PRES   REMARKS
GREENCASTLE +  MOCLDY    70  70 100 CALM      29.98S FOG
LAFAYETTE      MOCLDY    72  70  93 VRB6      29.94R
6HR MIN TEMP:  72; 6HR MAX TEMP:  79;

TERRE HAUTE    FAIR      73  70  90 S6        29.96S
6HR MIN TEMP:  72; 6HR MAX TEMP:  79;


$$

INZ030>032-037>040-046>048-054>057-064-065-010700-
CENTRAL INDIANA

CITY           SKY/WX    TMP DP  RH WIND       PRES   REMARKS
CP ATTERBURY + CLOUDY    70  68  94 CALM      30.00S FOG
FRANKFORT +    FAIR     N/A N/A N/A S3        29.97S HAZE
GREENWOOD *+   MOCLDY    72  72 100 S6        29.99F
INDIANAPOLIS   FAIR      71  69  93 S6        29.96F
6HR MIN TEMP:  71; 6HR MAX TEMP:  78;

-EAGLE CREEK   FAIR      72  68  87 S3        29.97S
6HR MIN TEMP:  72; 6HR MAX TEMP:  79;

KOKOMO *+      FAIR      70  66  88 S7        29.96F
MARION +       FAIR      71  68  93 S6        29.97F
MT COMFORT *+  FAIR      70 N/A N/A S3        29.99S
SHELBYVILLE    FAIR      72  69  90 S7        29.98S
6HR MIN TEMP:  72; 6HR MAX TEMP:  78;

ZIONSVILLE +   FAIR      73  68  86 S3        29.98F
6HR MIN TEMP:  72; 6HR MAX TEMP:  78;


$$

INZ033-034-041-042-049-050-058-059-010700-
EAST CENTRAL INDIANA

CITY           SKY/WX    TMP DP  RH WIND       PRES   REMARKS
MUNCIE         FAIR      72  68  87 S7        29.98S
6HR MIN TEMP:  72; 6HR MAX TEMP:  78;


$$

INZ060-061-067>069-081>083-085>088-010700-
SOUTHWEST INDIANA

CITY           SKY/WX    TMP DP  RH WIND       PRES   REMARKS
EVANSVILLE     FAIR      74  71  91 S3        29.98R
6HR MIN TEMP:  74; 6HR MAX TEMP:  81;

WASHINGTON +   MOCLDY    73  73 100 S7        29.96S
6HR MIN TEMP:  72; 6HR MAX TEMP:  78;


$$

INZ062-063-066-070>080-084-089>092-010700-
SOUTH CENTRAL AND SOUTHEAST INDIANA

CITY           SKY/WX    TMP DP  RH WIND       PRES   REMARKS
BEDFORD +      CLOUDY    72  68  88 S3        29.99  FOG
BLOOMINGTON    MOCLDY    72  70  93 S6        29.98F
6HR MIN TEMP:  71; 6HR MAX TEMP:  76;

NORTH VERNON + CLOUDY    73  73 100 S5        30.01

$$




USA.gov is the U.S. government's official web portal to all federal, state and local government web resources and services.